Location: Unspecified
(43.9472°N, 0.0000°E)
Time: 21:38:33
(UTC+00:00)

NOAA 16 DEB - Visible Passes

Search period start: 04 April 2026 00:00
Search period end: 14 April 2026 00:00
Orbit: 793 x 824 km, 98.7° (Epoch: 28 March)

Date Brightness Start Highest point End Pass type
(mag) Time Alt. Az. Time Alt. Az. Time Alt. Az.
4 Apr ? 20:12:20 30° E 20:13:37 34° ENE 20:18:17 10° N visible
4 Apr ? 21:53:26 32° W 21:53:26 32° W 21:58:07 10° NNW visible
5 Apr ? 19:47:39 18° E 19:49:33 22° ENE 19:53:29 10° NNE visible
5 Apr ? 21:28:44 53° WSW 21:29:00 53° W 21:34:08 10° NNW visible
6 Apr ? 19:22:57 10° E 19:25:34 14° ENE 19:28:14 10° NNE visible
6 Apr ? 21:04:02 70° S 21:04:41 87° WSW 21:09:56 10° NNW visible
6 Apr ? 22:45:08 11° W 22:45:15 11° W 22:46:36 10° WNW visible
7 Apr ? 20:39:20 48° ESE 20:40:25 58° ENE 20:45:32 10° N visible
7 Apr ? 22:20:25 19° W 22:20:37 19° W 22:24:16 10° NW visible
8 Apr ? 20:14:37 29° ESE 20:16:14 36° ENE 20:20:58 10° N visible
8 Apr ? 21:55:43 30° WSW 21:56:05 31° W 22:00:41 10° NW visible
9 Apr ? 19:49:54 17° E 19:52:08 23° ENE 19:56:09 10° NNE visible
9 Apr ? 21:31:00 48° SW 21:31:37 51° W 21:36:43 10° NNW visible
10 Apr ? 19:25:18 10° E 19:28:07 15° ENE 19:30:56 10° NNE visible
10 Apr ? 21:06:16 60° S 21:07:14 83° WSW 21:12:30 10° NNW visible
10 Apr ? 22:47:22 10° W 22:47:51 10° W 22:48:31 10° W visible
11 Apr ? 20:41:32 44° SE 20:42:57 61° ENE 20:48:05 10° N visible
11 Apr ? 22:22:38 18° W 22:23:12 18° W 22:26:42 10° NW visible
12 Apr ? 20:16:48 28° ESE 20:18:44 37° ENE 20:23:31 10° N visible
12 Apr ? 21:57:53 28° WSW 21:58:36 29° W 22:03:08 10° NW visible
13 Apr ? 19:52:03 17° E 19:54:35 24° ENE 19:58:42 10° N visible
13 Apr ? 21:33:08 43° SW 21:34:07 48° W 21:39:10 10° NNW visible
